GW1125 Weather Reports


time (UTC)temp
C
wind
direction
speed
KPH
gust
KPH
rain 1hr
cm
rain 24hr
cm
rain mn
cm
humidity
%
barometer
mb
20260503010617 23 66 1.6 3.2 0.00 0.00 0.00 48 1011.1
20260503010117 23 333 6.4 12.9 0.00 0.00 0.00 48 1011.2
20260503005618 23 79 1.6 3.2 0.00 0.00 0.00 48 1011.3
20260503005118 24 55 3.2 6.4 0.00 0.00 0.00 47 1011.3
20260503004617 24 85 1.6 1.6 0.00 0.00 0.00 48 1011.3
20260503004117 23 93 1.6 1.6 0.00 0.00 0.00 48 1011.4
20260503003617 23 326 0.0 4.8 0.00 0.00 0.00 47 1011.5
20260503003117 23 85 1.6 3.2 0.00 0.00 0.00 48 1011.4
20260503002617 23 72 1.6 4.8 0.00 0.00 0.00 48 1011.4
20260503002116 24 0.0 0.0 0.00 0.00 0.00 49 1011.3
20260503001637 23 76 0.0 1.6 0.00 0.00 0.00 49 1011.3
20260503001137 23 76 1.6 4.8 0.00 0.00 0.00 51 1011.4
20260503000618 23 45 1.6 6.4 0.00 0.00 0.00 50 1011.5
20260503000137 23 94 1.6 3.2 0.00 0.00 0.00 50 1011.5
20260502235617 23 81 1.6 4.8 0.00 0.00 0.00 51 1011.6
20260502235117 23 19 6.4 11.3 0.00 0.00 0.00 50 1011.6
20260502234617 23 42 4.8 9.7 0.00 0.00 0.00 51 1011.6
20260502234117 23 62 0.0 4.8 0.00 0.00 0.00 52 1011.7
20260502233636 23 6 8.0 14.5 0.00 0.00 0.00 51 1011.9
20260502233118 23 81 1.6 4.8 0.00 0.00 0.00 52 1012.0
20260502232617 24 85 1.6 3.2 0.00 0.00 0.00 50 1012.0
20260502232138 23 73 1.6 6.4 0.00 0.00 0.00 52 1012.0
20260502231617 23 48 3.2 6.4 0.00 0.00 0.00 53 1012.1
20260502231117 23 333 4.8 11.3 0.00 0.00 0.00 52 1012.2
20260502230617 23 64 1.6 3.2 0.00 0.00 0.00 54 1012.2
20260502230117 23 14 3.2 11.3 0.00 0.00 0.00 54 1012.3
20260502225617 23 62 3.2 6.4 0.00 0.00 0.00 55 1012.4
20260502225116 23 81 4.8 6.4 0.00 0.00 0.00 54 1012.5
20260502224637 23 59 3.2 9.7 0.00 0.00 0.00 54 1012.6
20260502224137 23 23 4.8 6.4 0.00 0.00 0.00 55 1012.6
20260502223638 23 43 4.8 6.4 0.00 0.00 0.00 54 1012.6
20260502223137 23 62 1.6 4.8 0.00 0.00 0.00 55 1012.8
20260502222617 23 72 1.6 4.8 0.00 0.00 0.00 54 1012.8
20260502222137 23 265 4.8 11.3 0.00 0.00 0.00 54 1012.9
20260502221617 22 309 3.2 9.7 0.00 0.00 0.00 55 1012.8
20260502221137 23 25 4.8 9.7 0.00 0.00 0.00 54 1012.8
20260502220617 22 24 8.0 12.9 0.00 0.00 0.00 55 1013.0
20260502220117 22 48 1.6 4.8 0.00 0.00 0.00 55 1012.9
20260502215618 23 41 1.6 4.8 0.00 0.00 0.00 55 1013.1
20260502215157 22 96 0.0 1.6 0.00 0.00 0.00 56 1013.1
20260502214617 22 75 4.8 6.4 0.00 0.00 0.00 56 1013.1
20260502214117 23 63 3.2 9.7 0.00 0.00 0.00 55 1013.3
20260502213617 22 0.0 0.0 0.00 0.00 0.00 58 1013.3
20260502213117 22 12 3.2 12.9 0.00 0.00 0.00 58 1013.4
20260502212617 22 79 1.6 3.2 0.00 0.00 0.00 58 1013.4
20260502212117 22 68 1.6 3.2 0.00 0.00 0.00 57 1013.5
20260502211617 22 96 4.8 11.3 0.00 0.00 0.00 58 1013.5
20260502211117 21 71 0.0 3.2 0.00 0.00 0.00 60 1013.5
20260502210618 21 62 3.2 6.4 0.00 0.00 0.00 60 1013.6
20260502210117 21 49 4.8 9.7 0.00 0.00 0.00 60 1013.6
20260502205617 21 62 3.2 6.4 0.00 0.00 0.00 60 1013.6
20260502205117 21 123 1.6 4.8 0.00 0.00 0.00 61 1013.8
20260502204617 21 113 1.6 4.8 0.00 0.00 0.00 60 1013.8
20260502204117 21 75 4.8 9.7 0.00 0.00 0.00 60 1013.7
20260502203617 21 77 4.8 9.7 0.00 0.00 0.00 61 1013.9
20260502203117 21 106 0.0 3.2 0.00 0.00 0.00 62 1013.9
20260502202617 20 28 4.8 6.4 0.00 0.00 0.00 62 1013.9
20260502202157 20 350 3.2 6.4 0.00 0.00 0.00 62 1014.1
20260502201638 20 131 3.2 9.7 0.00 0.00 0.00 62 1014.1
20260502201117 20 36 1.6 6.4 0.00 0.00 0.00 62 1014.0
20260502200617 20 15 1.6 4.8 0.00 0.00 0.00 64 1014.3
20260502200117 20 48 6.4 11.3 0.00 0.00 0.00 63 1014.2
20260502195617 20 112 1.6 3.2 0.00 0.00 0.00 64 1014.2
20260502195137 19 97 1.6 3.2 0.00 0.00 0.00 64 1014.3
20260502194616 20 37 1.6 9.7 0.00 0.00 0.00 64 1014.4
20260502194118 19 111 1.6 3.2 0.00 0.00 0.00 65 1014.5
20260502193618 19 80 0.0 1.6 0.00 0.00 0.00 66 1014.5
20260502193117 18 0.0 0.0 0.00 0.00 0.00 67 1014.5
20260502192617 18 119 3.2 9.7 0.00 0.00 0.00 67 1014.5
20260502192117 18 217 3.2 6.4 0.00 0.00 0.00 68 1014.7
20260502191617 19 48 3.2 6.4 0.00 0.00 0.00 66 1014.7
20260502191117 18 325 3.2 4.8 0.00 0.00 0.00 68 1014.8
20260502190617 18 83 1.6 4.8 0.00 0.00 0.00 68 1014.8
20260502190116 18 97 1.6 4.8 0.00 0.00 0.00 68 1014.9
20260502185637 17 122 1.6 4.8 0.00 0.00 0.00 70 1014.9
20260502185118 18 7 4.8 9.7 0.00 0.00 0.00 68 1014.9
20260502184618 17 77 0.0 1.6 0.00 0.00 0.00 70 1015.1
20260502184118 17 58 1.6 3.2 0.00 0.00 0.00 69 1015.2
20260502183617 18 63 3.2 4.8 0.00 0.00 0.00 68 1015.3
20260502183137 17 0.0 0.0 0.00 0.00 0.00 70 1015.3
20260502182617 17 61 1.6 3.2 0.00 0.00 0.00 70 1015.5
20260502182117 17 37 3.2 9.7 0.00 0.00 0.00 70 1015.3
20260502181637 17 56 3.2 4.8 0.00 0.00 0.00 71 1015.4
20260502181117 17 98 0.0 1.6 0.00 0.00 0.00 71 1015.4
20260502180638 16 337 4.8 11.3 0.00 0.00 0.00 72 1015.4
20260502180118 16 78 0.0 1.6 0.00 0.00 0.00 73 1015.4
20260502170137 13 347 4.8 6.4 0.00 0.00 0.00 83 1015.8
20260502164117 13 0.0 0.0 0.00 0.00 0.00 86 1015.9
20260502163618 12 82 0.0 3.2 0.00 0.00 0.00 86 1015.9
20260502163117 12 0.0 0.0 0.00 0.00 0.00 87 1015.9
20260502162618 12 78 1.6 3.2 0.00 0.00 0.00 86 1015.9
20260502162117 12 0.0 0.0 0.00 0.00 0.00 87 1016.0
20260502161617 12 84 0.0 1.6 0.00 0.00 0.00 89 1016.1
20260502161117 12 0.0 0.0 0.00 0.00 0.00 89 1016.1
20260502160617 12 0.0 0.0 0.00 0.00 0.00 89 1016.3
20260502160257 11 0.0 0.0 0.00 0.00 0.00 90 1016.4
20260502152117 11 0.0 0.0 0.00 0.00 0.00 93 1016.1
20260502151617 11 0.0 0.0 0.00 0.00 0.00 93 1016.2
20260502151117 10 0.0 0.0 0.00 0.00 0.00 93 1016.1
20260502150618 10 0.0 0.0 0.00 0.00 0.00 93 1016.1
20260502150118 10 0.0 0.0 0.00 0.00 0.00 94 1015.9
20260502140117 10 0.0 0.0 0.00 0.00 0.00 95 1015.9
20260502130617 10 0.0 0.0 0.00 0.00 0.00 95 1016.0
20260502130117 10 0.0 0.0 0.00 0.00 0.00 94 1015.9
20260502123618 10 0.0 0.0 0.00 0.00 0.00 94 1016.0
20260502123137 10 0.0 0.0 0.00 0.00 0.00 94 1016.2
20260502122617 10 0.0 0.0 0.00 0.00 0.00 93 1016.2
20260502122117 10 0.0 0.0 0.00 0.00 0.00 93 1016.2
20260502121657 10 0.0 0.0 0.00 0.00 0.00 94 1016.2
20260502121137 10 0.0 0.0 0.00 0.00 0.00 93 1016.4
20260502120617 10 0.0 0.0 0.00 0.00 0.00 93 1016.4
20260502120118 10 0.0 0.0 0.00 0.00 0.00 93 1016.4
20260502115617 10 0.0 0.0 0.00 0.00 0.00 94 1016.3
20260502115117 10 0.0 0.0 0.00 0.00 0.00 94 1016.2
20260502114617 10 0.0 0.0 0.00 0.00 0.00 94 1016.3
20260502114117 10 0.0 0.0 0.00 0.00 0.00 94 1016.3
20260502113617 10 0.0 0.0 0.00 0.00 0.00 93 1016.3
20260502113137 10 0.0 0.0 0.00 0.00 0.00 93 1016.3
20260502112637 10 86 0.0 1.6 0.00 0.00 0.00 93 1016.3
20260502112157 10 0.0 0.0 0.00 0.00 0.00 93 1016.5
20260502111617 10 0.0 0.0 0.00 0.00 0.00 93 1016.5
20260502111118 10 0.0 0.0 0.00 0.00 0.00 93 1016.4
20260502110618 10 0.0 0.0 0.00 0.00 0.00 93 1016.6
20260502110117 10 0.0 0.0 0.00 0.00 0.00 92 1016.4
20260502105637 10 0.0 0.0 0.00 0.00 0.00 92 1016.7
20260502105137 10 89 0.0 1.6 0.00 0.00 0.00 91 1016.6
20260502104637 10 118 0.0 1.6 0.00 0.00 0.00 91 1016.9
20260502104117 10 0.0 0.0 0.00 0.00 0.00 91 1017.0
20260502103616 10 145 3.2 6.4 0.00 0.00 0.00 91 1017.0
20260502103118 10 0.0 0.0 0.00 0.00 0.00 91 1016.9
20260502102617 10 110 0.0 3.2 0.00 0.00 0.00 91 1016.7
20260502102117 10 0.0 0.0 0.00 0.00 0.00 92 1016.3
20260502101617 10 0.0 0.0 0.00 0.00 0.00 92 1016.1
20260502101117 10 0.0 0.0 0.00 0.00 0.00 92 1016.2
20260502100617 10 0.0 0.0 0.00 0.00 0.00 91 1015.9
20260502100117 10 0.0 0.0 0.00 0.00 0.00 91 1015.8
20260502091117 11 0.0 0.0 0.00 0.00 0.00 89 1015.9
20260502090617 11 0.0 0.0 0.00 0.00 0.00 89 1015.8
20260502090117 11 0.0 0.0 0.00 0.00 0.00 89 1015.7
20260502071117 12 0.0 0.0 0.00 0.00 0.00 80 1015.7
20260502070657 13 0.0 0.0 0.00 0.00 0.00 80 1015.6
20260502070117 13 0.0 0.0 0.00 0.00 0.00 80 1015.6
20260502065617 13 0.0 0.0 0.00 0.00 0.00 79 1015.5
20260502065117 13 0.0 0.0 0.00 0.00 0.00 77 1015.5
20260502064637 13 0.0 0.0 0.00 0.00 0.00 77 1015.6
20260502064117 14 0.0 0.0 0.00 0.00 0.00 73 1015.6
20260502063618 14 0.0 0.0 0.00 0.00 0.00 76 1015.6
20260502063117 14 0.0 0.0 0.00 0.00 0.00 74 1015.6
20260502062637 15 84 0.0 1.6 0.00 0.00 0.00 72 1015.5
20260502062117 15 93 0.0 1.6 0.00 0.00 0.00 76 1015.7
20260502061117 15 96 0.0 1.6 0.00 0.00 0.00 72 1015.4
20260502060637 15 0.0 0.0 0.00 0.00 0.00 73 1015.4
20260502060118 16 0.0 0.0 0.00 0.00 0.00 72 1015.2
20260502055617 16 0.0 0.0 0.00 0.00 0.00 71 1015.1
20260502055138 16 0.0 0.0 0.00 0.00 0.00 70 1015.1
20260502054617 16 0.0 0.0 0.00 0.00 0.00 70 1015.0
20260502054137 16 0.0 0.0 0.00 0.00 0.00 68 1015.1
20260502053617 16 0.0 0.0 0.00 0.00 0.00 70 1015.0
20260502053137 16 0.0 0.0 0.00 0.00 0.00 68 1014.9
20260502052637 16 0.0 0.0 0.00 0.00 0.00 71 1014.7
20260502052117 16 0.0 0.0 0.00 0.00 0.00 69 1014.6
20260502051617 16 0.0 0.0 0.00 0.00 0.00 69 1014.6
20260502051117 16 0.0 0.0 0.00 0.00 0.00 69 1014.6
20260502050617 16 120 1.6 1.6 0.00 0.00 0.00 69 1014.7
20260502050117 16 0.0 0.0 0.00 0.00 0.00 69 1014.4
20260502045617 16 90 0.0 1.6 0.00 0.00 0.00 69 1014.5
20260502045117 16 0.0 0.0 0.00 0.00 0.00 69 1014.5
20260502044617 16 0.0 0.0 0.00 0.00 0.00 68 1014.5
20260502044137 16 0.0 0.0 0.00 0.00 0.00 67 1014.4
20260502043617 16 0.0 0.0 0.00 0.00 0.00 66 1014.4
20260502043117 16 0.0 0.0 0.00 0.00 0.00 66 1014.4
20260502042618 16 85 0.0 3.2 0.00 0.00 0.00 64 1014.3
20260502042117 17 86 0.0 3.2 0.00 0.00 0.00 64 1014.4
20260502041618 17 60 1.6 3.2 0.00 0.00 0.00 63 1014.2
20260502041137 17 59 4.8 4.8 0.00 0.00 0.00 62 1014.2
20260502040617 17 107 0.0 1.6 0.00 0.00 0.00 62 1014.1
20260502040117 17 0.0 0.0 0.00 0.00 0.00 62 1013.9
20260502035617 17 0.0 0.0 0.00 0.00 0.00 60 1013.8
20260502035117 17 0.0 0.0 0.00 0.00 0.00 59 1013.8
20260502034617 17 0.0 0.0 0.00 0.00 0.00 59 1013.7
20260502034118 17 0.0 0.0 0.00 0.00 0.00 59 1013.8
20260502033657 17 0.0 0.0 0.00 0.00 0.00 58 1013.6
20260502033117 17 0.0 0.0 0.00 0.00 0.00 58 1013.6
20260502032617 17 0.0 0.0 0.00 0.00 0.00 60 1013.5
20260502032117 18 0.0 0.0 0.00 0.00 0.00 58 1013.3
20260502031617 18 0.0 0.0 0.00 0.00 0.00 57 1013.3
20260502031137 18 0.0 0.0 0.00 0.00 0.00 54 1013.4
20260502030617 18 0.0 0.0 0.00 0.00 0.00 56 1013.3
20260502030117 18 0.0 0.0 0.00 0.00 0.00 57 1013.1
20260502025617 18 0.0 0.0 0.00 0.00 0.00 56 1013.1
20260502025138 18 0.0 0.0 0.00 0.00 0.00 56 1013.2
20260502024617 19 0.0 0.0 0.00 0.00 0.00 55 1013.1
20260502024117 19 0.0 0.0 0.00 0.00 0.00 54 1013.1
20260502023617 19 85 0.0 1.6 0.00 0.00 0.00 52 1012.9
20260502023117 19 0.0 0.0 0.00 0.00 0.00 53 1012.9
20260502022637 20 0.0 0.0 0.00 0.00 0.00 54 1012.9
20260502022117 20 80 1.6 3.2 0.00 0.00 0.00 51 1012.9
20260502021617 20 45 3.2 3.2 0.00 0.00 0.00 52 1012.9
20260502021116 20 51 1.6 4.8 0.00 0.00 0.00 51 1012.7
20260502020618 20 79 3.2 9.7 0.00 0.00 0.00 50 1012.7
20260502020117 20 83 0.0 1.6 0.00 0.00 0.00 50 1012.8
20260502015617 20 0.0 0.0 0.00 0.00 0.00 49 1012.8
20260502015137 20 62 0.0 3.2 0.00 0.00 0.00 49 1012.8
20260502014617 20 0.0 0.0 0.00 0.00 0.00 50 1012.8
20260502014117 21 0.0 0.0 0.00 0.00 0.00 50 1012.7
20260502013617 21 82 1.6 4.8 0.00 0.00 0.00 47 1012.7
20260502013117 21 91 0.0 1.6 0.00 0.00 0.00 50 1012.7
20260502012617 21 70 1.6 4.8 0.00 0.00 0.00 47 1012.7
20260502012118 21 25 4.8 6.4 0.00 0.00 0.00 46 1012.8
20260502011637 21 68 1.6 4.8 0.00 0.00 0.00 47 1012.9
20260502011117 21 105 3.2 4.8 0.00 0.00 0.00 48 1013.0